User: anonymous   Login
Location: Flotzheim
(48.8375°N, 10.8136°E)
Time: 02:49:08
(UTC+00:00)
Language:

SJ-11-01 - Orbit

View from above orbital plane
View from above orbital plane
View from above satellite
View from above satellite

Ground track
Ground track

The orbit data is extracted from the following two-line orbital elements,

1 36088U 09061A   21102.80254416  .00000006  00000-0  10384-4 0  9993
2 36088  97.9613 130.5500 0010670 211.0982 148.9587 14.60210813608296
Epoch (UTC): 12 April 2021 19:15:39
Eccentricity: 0.0010670
inclination: 97.9613°
perigee height: 685 km
apogee height: 700 km
right ascension of ascending node: 130.5500°
argument of perigee: 211.0982°
revolutions per day: 14.60210813
mean anomaly at epoch: 148.9587°
orbit number at epoch: 60829

The dashed part of the orbit path shows where the satellite is in the earth's shadow,  

DLR